Hourly Data Report for October 02, 2017

All times are specified in Local Standard Time (LST). Add 1 hour to adjust for Daylight Saving Time where and when it is observed.

MONCTON INTL A
NEW BRUNSWICK

46°06'44.000" N
64°40'43.000" W
70.70 m
8103201
71705
YQM

Download Data

Hourly Data (October 2017)
Hourly Data Report for October 2, 2017
Temp Definition
°C
Dew Point Temp Definition
°C
Rel Hum Definition
%
Wind Dir Definition
10's deg

Wind Spd Definition
km/h
Visibility Definition
km
Stn Press Definition
kPa
Hmdx Definition


Wind Chill Definition


Weather Definition


TIME
00:00 Legend Double Dagger 7.5 5.4 86 23 15 24.1 101.10     LegendNANA
01:00 Legend Double Dagger 6.3 5.2 92 21 14 24.1 101.16     LegendNANA
02:00 Legend Double Dagger 7.6 4.3 79 26 8 24.1 101.16     Clear
03:00 Legend Double Dagger 8.9 4.6 75 32 17 24.1 101.17     LegendNANA
04:00 Legend Double Dagger 9.1 4.7 74 33 23 24.1 101.24     LegendNANA
05:00 Legend Double Dagger 6.8 4.1 83 35 15 24.1 101.35     Clear
06:00 Legend Double Dagger 4.8 3.5 92 34 12 24.1 101.45     LegendNANA
07:00 Legend Double Dagger 5.5 4.1 90 33 11 24.1 101.58     LegendNANA
08:00 Legend Double Dagger 8.9 3.9 71 34 16 24.1 101.66     Mainly Clear
09:00 Legend Double Dagger 10.5 3.7 63 35 21 24.1 101.74     LegendNANA
10:00 Legend Double Dagger 10.9 2.4 55 36 26 24.1 101.82     LegendNANA
11:00 Legend Double Dagger 10.4 2.2 57 36 27 24.1 101.91     Mostly Cloudy
12:00 Legend Double Dagger 10.2 2.7 59 1 23 24.1 101.96     LegendNANA
13:00 Legend Double Dagger 9.9 2.1 58 36 30 24.1 102.00     LegendNANA
14:00 Legend Double Dagger 11.7 2.8 54 35 30 24.1 102.02     Mostly Cloudy
15:00 Legend Double Dagger 9.8 2.1 59 2 29 24.1 102.10     LegendNANA
16:00 Legend Double Dagger 9.8 2.0 58 3 27 24.1 102.13     LegendNANA
17:00 Legend Double Dagger 9.0 2.4 63 2 16 24.1 102.19     Clear
18:00 Legend Double Dagger 5.9 1.9 75 1 8 24.1 102.28     LegendNANA
19:00 Legend Double Dagger 4.3 1.9 84 34 10 24.1 102.38     LegendNANA
20:00 Legend Double Dagger 4.2 2.0 86 35 10 24.1 102.44     Clear
21:00 Legend Double Dagger 2.9 2.0 94 2 8 24.1 102.49     LegendNANA
22:00 Legend Double Dagger 3.2 1.9 91 35 4 24.1 102.52     LegendNANA
23:00 Legend Double Dagger 2.3 0.9 90 20 6 24.1 102.54     Clear

Notes on Data Quality.

Legend

  • E = Estimated
  • M = Missing
  • NA = Not Available
  • ‡ = Partner data that is not subject to review by the National Climate Archives
Date modified: